Perth International Airport

Airport
ICAO code: 
YPPH
IATA Code: 
PER
Summary
ICAO Region: 
APAC
Territory: 
Location: 
Redcliffe, Western Australia
Serving: 
Perth
Elevation: 
67 ft
Coordinates: 
Aerial View: 
31° 56' 37.353" S, 115° 57' 48.198" E
Airport WX: 
Cumulonimbus
Metar
Observation
YPPH 010700Z 05005KT CAVOK 19/07 Q1028
Station
Belmont Perth Airport
Date/Time
2022-07-01 07:00:00
Wind direction
50°
Wind speed
05 kts
Lowest cloud amount
clouds and visibility OK
Temperature
19°C
Dew point
7°C
Humidity
45%
QNH
1028 hPa
Weather condition
n/a

Perth Airport is an Australian domestic and international airport located south of Guildford, Western Australia, and is the major commercial airport servicing Western Australia's capital city, Perth.

Climatology

Dry-summer subtropical ”Mediterranean" climate (Köppen climate classification Csa) - characterized by hot, dry summers and mild winters. During the summer, subtropical high pressure cells dominate, making rainfall unlikely except for the occasional thunderstorm. In the winter, periodic storms bring rain.

Runways

Designator Length Width Surface Rops
6/24 2163 45 ASP Yes/Yes
3/21 3444 45 ASP Yes/Yes

SKYbrary Partners:

Safety knowledge contributed by: